Content
SEND FEEDBACK

Daily
Averages
Monthly
Summary
United States of America

EARTH CITY, MISSOURI


Home > North America > United States > Missouri
Elevation: 476 feet     Latitude: 38 46N     Longitude: 090 30W

WEATHER
 
SELECT A DAY
Number of Records: 203,268;   Date Range: 1/1/95 - 7/7/14
 
SHARE

PRINT THIS DATA

[ ← Previous Day ]
WEATHER ALMANAC - MARCH 15, 2013
[ Next Day → ]
[ °C ]   °F
Weather ElementAverageHighLow
Temperature53.2 °F70 °F (1:51 pm)32 °F (3:51 am)
Dewpoint37.1 °F45 °F (7:51 pm)27 °F (3:51 am)
Humidity58.3 %82 % (3:51 am)31 % (1:51 pm)
Barometer29.87 in30.07 in (1:51 am)29.66 in (11:51 pm)
Wind Speed3.9 mph16.1 mph (6:51 pm)
Weather ElementAverage
Visibility9.3 mi
Wind DirectionENE (57 °)

Weather ElementTotal
Precipitation---
Heating Degree Days14 (Base 65)
Growing Degree Days1 (Base 50)
Averaged from 23 records on March 15, 2013
WEATHER CONDITIONS BREAKOUT
WIND DIRECTION BREAKOUT
WEATHER BY HOUR - MARCH 15, 2013
[ °C ]   °F
Local TimeTemperatureDewpointHumidityBarometerVisibilityWind DirectionWind SpeedGust SpeedPrecipitationEventsConditions
1:51 AM33.8 °F28.4 °F81 %30.07 in10.0 miEast (100°)4.6 mphPartly Cloudy
2:51 AM34.0 °F28.0 °F79 %30.07 in9.0 miEast (100°)5.8 mphClear
3:51 AM32.0 °F27.0 °F82 %30.03 in9.0 miCalmClear
4:51 AM34.0 °F28.0 °F79 %30.01 in9.0 miCalmPartly Cloudy
5:51 AM34.0 °F28.0 °F79 %30.00 in9.0 miCalmScattered Clouds
6:51 AM32.0 °F27.0 °F82 %30.01 in8.0 miCalmMostly Cloudy
7:51 AM34.0 °F28.9 °F82 %30.01 in8.0 miCalmOvercast
8:51 AM41.0 °F34.0 °F76 %29.99 in7.0 miCalmMostly Cloudy
9:51 AM46.9 °F35.1 °F63 %29.99 in8.0 miCalmMostly Cloudy
10:51 AM55.9 °F37.9 °F51 %29.96 in10.0 miCalmMostly Cloudy
11:51 AM64.0 °F39.9 °F41 %29.95 in10.0 miCalmMostly Cloudy
12:51 PM68.0 °F39.9 °F36 %29.91 in10.0 miCalmMostly Cloudy
1:51 PM70.0 °F37.9 °F31 %29.87 in10.0 miCalmMostly Cloudy
2:51 PM69.1 °F42.1 °F38 %29.82 in10.0 miESE (120°)10.4 mphOvercast
3:51 PM70.0 °F41.0 °F35 %29.78 in9.0 miSSE (160°)11.5 mphOvercast
4:51 PM70.0 °F39.9 °F33 %29.75 in10.0 miSE (140°)10.4 mphOvercast
5:51 PM68.0 °F44.1 °F42 %29.73 in10.0 miSE (140°)13.8 mphOvercast
6:51 PM68.0 °F43.0 °F40 %29.71 in10.0 miSSE (150°)16.1 mphMostly Cloudy
7:51 PM68.0 °F45.0 °F43 %29.69 in10.0 miSouth (180°)10.4 mphMostly Cloudy
8:51 PM62.1 °F45.0 °F53 %29.70 in10.0 miCalmMostly Cloudy
9:51 PM59.0 °F45.0 °F60 %29.69 in10.0 miCalmMostly Cloudy
10:51 PM55.9 °F45.0 °F67 %29.68 in9.0 miCalmScattered Clouds
11:51 PM55.0 °F44.1 °F67 %29.66 in9.0 miSW (220°)5.8 mphScattered Clouds
Hourly data recorded from KSTL, located miles away from Earth City, Missouri







STORIES FROM OUR PARTNERS